sat.trackr.live / text

‹ back to catalog

ONEWEB-0286

NORAD 49076 · 2021-075B

PAYLOAD ACTIVE UNKNOWN

§ Identity

Operator
Country
UK
Launch date
2021-08-21
Launch site
TYMSC
Launch vehicle
Mass (kg)
RCS (m²)

Purposes: comms

External: N2YO · Heavens-Above · Gunter

§ Orbital elements

Epoch: 2026-05-25T02:16:43.355136Z

Period
109.72 min
Inclination
87.8948°
Eccentricity
0.0001961
Mean motion
13.12442441 rev/d
Perigee alt
1,212.2 km
Apogee alt
1,215.2 km
Semi-major
7,591.9 km
B*
6.2361e-4
RAAN
355.2731°
Arg perigee
88.4301°
Mean anomaly
271.7052°
Rev number
23,153

§ Raw data

ONEWEB-02861 49076U 21075B   26145.09494624  .00000237  00000+0  62361-3 0  99992 49076  87.8948 355.2731 0001961  88.4301 271.7052 13.12442441231533

JSON: /api/v1/satellites/49076 · /tle

For live sub-satellite position, see the globe view (requires WebGL).

§ Visibility from observer

Set your observer location to see the next 7 days of passes ≥ 10°. The values pass through the URL so the page stays shareable.

No JS? Fill the form by hand. The geolocation button needs JavaScript.